Temperature
23 23 22 22 21 21 21 20 20 20 20 20 19 19 19 19 19 19 19 19 19 19 18 18 18 18 18 18 18 18 18 18 18 18 18 18 18 17 17 17 17 17 17
23 22 22 22 22 21 21 21 20 20 20 20 20 19 19 19 19 19 19 19 19 19 18 18 18 18 18 18 18 18 18 18 18 18 18 17 17 17 17 17 17 17 17
23 23 22 22 22 21 21 21 21 20 20 20 20 19 19 19 19 19 19 19 19 19 19 19 18 19 18 18 18 18 18 18 18 18 18 17 17 17 17 17 17 17 17
23 23 23 22 22 22 22 21 21 21 20 20 20 20 19 19 19 19 19 19 19 19 19 19 19 19 19 18 18 18 18 18 18 18 17 17 17 17 17 17 16 16 16
24 23 23 23 23 22 22 21 21 21 21 20 20 20 20 19 19 19 19 19 19 19 19 19 19 19 19 19 18 18 18 18 18 18 17 17 17 17 17 16 16 16 16
24 24 23 23 22 22 22 21 21 21 21 20 20 20 20 19 19 19 19 19 19 19 19 18 18 18 18 18 18 18 18 18 18 17 17 17 17 17 17 16 16 16 15
24 24 23 23 23 22 22 21 21 21 20 20 20 20 20 19 19 19 19 19 19 19 19 19 18 18 18 18 18 18 18 18 18 17 17 17 17 17 17 16 16 15 15
25 24 24 24 23 23 22 22 21 21 21 20 20 20 20 19 19 19 19 19 19 19 19 18 18 18 18 18 18 18 18 17 17 17 17 17 17 17 17 16 16 15 15
25 24 24 24 23 23 23 22 21 21 21 20 20 20 19 19 19 19 18 18 18 18 18 18 18 18 18 18 18 18 17 17 17 17 17 17 17 17 16 16 16 16 15
24 24 24 24 23 23 22 22 21 21 21 20 20 20 19 19 19 19 18 18 18 18 18 18 18 18 18 18 18 17 17 17 17 17 17 17 16 16 16 16 16 16 15
25 24 24 23 23 23 22 22 21 21 21 20 20 20 19 19 19 19 18 18 18 18 18 18 17 17 17 17 17 17 17 17 17 17 16 16 16 16 16 16 15 15 15
25 24 24 23 23 22 22 22 21 21 21 20 20 19 19 19 19 18 18 18 18 18 17 17 17 17 17 17 17 17 17 17 16 16 16 16 16 16 15 15 15 15 15
24 24 24 23 23 22 22 21 21 21 20 20 20 19 19 19 19 18 18 18 18 17 17 17 17 17 17 17 17 16 16 16 16 16 16 16 15 15 15 15 15 14 14
24 24 23 23 23 22 22 21 21 20 20 20 20 19 19 19 18 18 18 18 17 17 17 17 17 17 17 16 16 16 16 16 15 15 15 15 15 15 15 15 14 14 14
24 23 23 23 23 22 21 21 21 20 20 20 20 19 19 18 18 18 18 17 17 17 17 17 16 16 16 16 16 16 15 15 15 15 15 15 15 14 14 14 14 14 14
23 23 23 23 22 22 21 21 20 20 20 20 20 19 19 18 18 18 17 17 17 17 16 16 16 16 15 15 15 15 15 15 15 14 14 14 14 14 14 14 14 14 13
23 23 23 23 23 22 22 21 21 20 20 20 19 19 18 18 18 17 17 17 16 16 16 16 16 16 15 15 15 15 14 14 14 14 14 14 14 14 13 13 13 13 13
23 23 23 23 22 22 21 21 21 20 19 19 19 18 18 18 17 17 17 16 16 16 16 16 15 15 15 14 14 14 14 14 14 13 13 13 13 13 13 13 13 13 12
24 24 23 23 22 22 21 21 20 20 19 19 18 18 18 18 17 17 16 16 16 16 15 15 15 14 14 14 14 14 14 13 13 13 13 13 13 12 12 13 12 12 12
24 23 23 22 22 21 21 20 20 19 19 19 18 18 18 18 17 17 16 16 15 15 15 15 14 14 14 13 13 13 13 13 13 13 13 12 12 12 12 12 12 12 11
23 23 22 22 22 21 20 20 20 19 19 19 18 18 17 17 17 16 16 16 15 15 15 14 14 14 13 13 13 13 13 13 13 13 12 12 12 12 12 12 12 11 11
22 22 22 22 21 21 20 20 20 19 19 18 18 17 17 17 16 16 15 15 15 15 14 14 14 13 13 13 13 13 13 13 13 12 12 12 12 12 12 12 11 11 11
22 22 22 21 21 20 20 20 19 19 18 18 17 17 16 16 16 15 15 15 15 14 14 14 13 13 13 13 13 13 13 12 12 12 12 12 12 11 11 11 11 11 11
21 21 21 21 20 20 19 19 19 19 18 18 17 17 16 16 15 15 15 15 15 14 14 14 13 13 13 13 13 12 12 12 12 12 12 11 11 11 11 11 11 11 10
21 21 21 20 20 20 19 19 18 18 18 17 17 16 16 15 15 15 15 15 15 14 14 14 14 13 13 13 13 12 12 12 12 12 12 11 11 11 11 10 10 10 10
21 20 20 20 20 19 19 18 18 18 17 17 16 16 16 15 15 15 15 14 14 14 14 13 13 13 13 13 12 12 12 12 12 11 11 11 11 11 10 10 10 10 10
Wind_Speed
11 12 12 12 11 10 9 9 8 7 5 3 2 2 2 2 2 4 7 8 7 6 5 2 2 2 2 2 2 1 1 1 1 1 2 2 1 0 1 2 3 3 5
11 12 11 11 11 11 10 9 9 7 6 4 3 3 3 3 3 3 5 7 7 6 5 4 3 3 2 1 1 1 1 1 1 2 1 1 3 2 1 1 2 2 3
16 15 13 12 11 11 11 10 9 8 7 5 3 1 1 1 0 1 2 3 5 6 5 5 4 3 3 3 3 2 2 1 1 2 3 2 2 1 2 1 1 1 2
14 14 14 13 13 12 11 9 9 8 7 5 4 4 3 2 3 2 2 2 3 4 5 5 5 4 3 3 3 3 2 2 2 1 2 3 4 2 1 2 1 2 2
16 17 16 15 13 11 10 9 8 8 6 6 5 4 3 3 2 1 2 2 1 3 4 4 4 4 3 3 3 2 2 3 3 2 1 1 1 2 2 1 1 2 2
16 15 13 11 10 10 9 8 8 8 7 6 5 5 4 3 2 2 2 2 1 2 2 3 4 4 3 3 3 3 2 2 2 2 1 2 2 2 2 3 2 1 0
14 14 14 13 12 12 11 9 8 8 7 7 6 5 5 4 4 3 3 3 2 2 3 2 2 2 3 3 2 2 2 2 2 2 2 2 2 2 3 3 2 1 0
14 15 15 14 13 13 11 9 8 7 8 7 6 5 4 3 3 3 3 3 3 3 2 2 2 2 2 2 2 2 2 1 1 1 1 1 1 2 3 3 4 2 1
14 14 14 12 12 11 11 10 8 7 7 7 6 4 4 4 3 3 3 2 2 1 1 2 2 1 1 1 2 1 1 1 1 1 1 1 1 1 2 3 4 4 3
12 12 11 11 10 10 9 9 9 9 8 7 6 5 3 3 3 2 2 1 1 1 2 2 2 2 1 1 1 1 1 1 0 0 1 1 0 1 1 2 2 3 4
13 12 10 10 10 9 9 9 9 8 7 7 5 4 3 3 3 2 2 2 2 2 2 2 2 2 2 1 2 1 1 1 1 0 1 1 1 1 1 2 2 2 4
9 10 11 10 10 10 9 9 8 8 7 6 5 5 4 4 3 3 2 3 3 3 3 3 3 3 2 2 2 2 1 2 1 1 2 1 2 2 2 2 3 3 3
9 9 9 10 10 10 10 9 9 8 7 6 6 5 4 4 4 3 3 3 3 3 3 4 4 3 2 3 2 2 2 2 1 1 2 1 2 2 2 2 3 3 4
10 9 9 9 9 9 9 8 8 8 8 7 7 6 5 5 4 4 4 3 4 4 4 4 3 3 3 3 2 2 3 3 3 2 2 2 2 2 2 3 3 4 5
10 10 10 9 8 8 8 8 8 8 8 8 7 6 5 4 4 4 4 4 4 4 4 4 4 3 3 3 3 3 4 3 3 3 3 3 4 3 2 3 3 5 4
10 11 11 10 10 10 9 9 9 8 8 8 7 6 5 5 5 5 5 5 4 4 5 4 4 4 3 3 4 4 4 3 3 3 3 4 5 6 7 6 5 6 6
11 11 11 11 10 10 9 9 9 8 8 8 7 6 6 6 5 6 5 5 4 4 4 4 4 4 4 5 5 6 4 4 3 3 3 3 4 5 5 7 8 6 6
11 11 10 10 9 8 8 8 8 8 8 8 7 6 6 6 5 6 6 5 4 4 4 4 4 4 4 6 6 7 5 4 4 3 3 4 3 4 5 5 6 5 4
11 10 10 10 9 9 10 10 9 8 8 8 7 6 7 7 6 6 5 5 5 4 4 4 4 4 3 5 6 6 4 5 5 4 4 4 4 5 7 7 6 5 4
8 8 9 9 10 10 10 10 9 8 8 8 7 6 7 7 7 6 5 5 5 5 5 4 4 4 3 4 6 7 4 5 4 4 5 6 6 6 7 5 5 5 2
8 8 9 9 9 10 11 10 9 8 8 8 7 6 6 6 6 5 5 5 5 5 5 5 3 3 3 4 5 6 4 4 4 3 2 2 5 6 6 5 3 3 3
9 10 10 8 8 10 11 10 9 8 8 8 8 7 6 6 5 6 5 5 6 6 5 4 3 2 2 4 4 6 5 5 5 3 1 1 4 5 5 4 4 5 5
8 8 10 9 7 8 10 10 9 9 9 9 7 6 6 5 5 6 5 5 5 5 4 4 3 1 1 2 4 5 5 5 4 2 2 3 4 5 4 4 5 5 4
7 7 9 9 8 7 8 9 9 10 10 9 8 7 6 5 4 4 4 5 4 5 5 4 4 2 1 1 1 2 2 4 3 2 3 4 5 5 3 3 3 2 2
6 7 9 9 9 8 8 8 10 11 10 9 8 7 6 6 5 4 2 3 3 5 6 5 5 5 4 4 4 4 2 2 2 3 3 3 3 3 2 2 2 2 2
7 8 8 9 8 8 8 8 9 11 11 9 8 6 6 5 5 5 3 5 3 2 5 7 7 4 5 6 6 5 4 4 5 4 3 2 2 1 1 1 1 1 1
Wind_Direction
168 165 164 161 159 163 164 168 168 175 167 159 161 166 196 212 213 203 206 203 199 193 185 191 194 175 168 193 199 192 207 238 141 67 20 2 3 81 152 157 147 159 175
163 166 166 164 166 170 170 168 171 176 179 179 178 183 189 209 211 214 213 209 204 198 195 188 192 193 185 207 210 177 168 249 137 144 121 358 350 355 338 131 143 160 153
174 173 173 174 172 175 175 174 173 176 184 181 164 163 104 2 288 240 230 223 209 201 196 191 187 188 184 207 218 196 174 215 255 174 155 160 221 289 349 21 78 97 133
176 177 178 179 180 182 177 169 170 174 179 172 166 170 178 202 220 213 214 235 203 197 200 197 193 197 198 205 217 207 193 182 231 249 203 186 170 172 277 353 19 77 94
179 182 185 184 182 178 175 173 170 175 176 174 174 177 195 211 217 193 200 218 222 214 209 203 197 201 206 212 214 206 199 193 206 215 209 198 191 172 168 239 313 43 55
182 183 183 176 175 173 173 173 176 181 179 178 178 183 195 199 178 191 209 231 240 240 228 210 204 205 208 212 214 210 200 200 193 188 186 184 175 184 168 196 210 170 35
181 180 180 179 177 176 176 178 179 185 183 182 188 190 192 184 186 195 200 214 229 234 232 214 202 204 202 197 190 187 192 183 174 186 199 191 198 170 160 161 181 167 224
182 183 184 182 180 176 174 175 181 188 184 186 195 190 184 184 198 201 197 207 214 219 219 189 178 187 191 193 177 185 200 167 185 207 198 181 202 166 168 168 162 151 95
179 180 179 177 173 168 171 175 179 185 183 186 186 187 184 182 190 196 188 187 196 182 136 142 141 144 144 160 157 163 188 155 176 212 194 176 201 157 171 169 166 162 161
173 174 175 173 169 164 161 159 175 181 177 180 183 184 186 191 193 179 175 156 137 107 95 96 99 96 98 104 114 133 162 132 167 159 119 122 148 110 124 146 143 141 154
169 165 163 164 159 152 153 156 164 166 170 173 169 168 170 173 160 138 127 117 110 109 104 112 111 100 94 87 98 93 101 124 119 80 112 137 112 108 108 117 115 119 133
155 152 153 152 151 152 152 155 160 162 165 165 156 156 144 137 133 126 121 116 111 108 110 101 98 93 83 71 77 76 62 83 76 71 95 89 102 100 104 119 127 132 132
141 141 143 146 151 155 158 161 163 161 157 151 145 143 135 132 136 136 129 125 115 100 93 95 95 91 84 81 77 84 76 83 69 73 103 108 102 98 113 125 131 133 128
144 142 144 149 152 157 159 158 159 156 153 149 146 144 145 142 139 132 126 121 113 104 97 94 91 85 79 72 71 85 83 74 62 60 72 94 112 136 139 137 139 129 120
146 148 150 152 152 155 159 157 155 154 151 147 147 151 148 137 125 121 118 113 108 104 100 95 83 75 76 66 70 83 89 84 72 56 54 72 83 89 126 137 144 137 133
156 156 156 157 160 163 161 157 152 152 149 148 153 150 140 133 129 126 120 110 101 93 89 88 83 71 64 72 89 98 93 93 90 78 60 64 65 72 78 91 106 129 145
162 162 166 167 166 165 160 157 153 149 150 152 152 151 149 144 141 134 123 119 116 106 94 85 82 74 61 74 88 96 102 92 86 87 79 76 66 64 74 77 80 85 106
159 163 166 165 161 157 151 148 142 147 153 156 157 157 150 148 145 139 137 136 123 114 103 90 86 81 65 78 93 97 93 83 77 80 89 92 75 76 88 86 75 68 70
164 168 166 162 156 154 152 144 147 150 151 155 158 155 149 147 146 144 142 136 123 109 102 101 93 84 59 73 92 98 89 81 70 66 75 93 90 83 93 91 85 71 52
150 156 152 147 153 157 151 148 153 155 160 161 158 151 147 148 150 148 141 133 126 122 110 96 92 97 82 75 97 104 105 92 79 64 61 78 92 91 95 103 105 98 75
146 151 150 153 160 155 149 152 156 165 163 150 143 141 142 143 144 137 136 134 128 120 110 103 88 86 88 87 103 112 114 120 106 91 65 54 82 87 87 101 114 141 134
152 154 153 154 152 153 152 157 165 162 145 140 140 140 142 141 136 130 130 132 135 128 123 115 94 69 67 82 102 111 116 120 114 117 112 85 86 81 84 90 102 103 99
154 153 150 149 151 158 158 161 163 150 143 141 143 143 138 130 133 139 142 136 135 137 139 137 133 115 70 61 85 102 109 113 107 120 138 120 97 84 79 81 94 95 92
151 150 147 150 156 157 156 160 155 150 147 149 150 147 141 134 129 135 144 147 153 153 153 153 157 151 133 112 71 79 91 93 87 80 80 78 71 66 62 59 66 84 107
157 155 156 157 159 154 152 154 152 151 150 154 154 151 147 144 136 124 123 155 171 178 171 175 172 168 181 211 180 152 144 139 127 97 69 60 57 56 42 35 33 42 55
153 151 151 151 152 150 153 156 156 156 156 160 162 161 156 152 146 137 100 48 74 137 168 172 168 178 183 174 166 162 158 146 137 112 105 107 114 123 124 116 62 57 81
Height
1548 1551 1553 1555 1556 1558 1559 1560 1561 1563 1564 1565 1565 1566 1567 1568 1568 1569 1569 1570 1570 1570 1570 1570 1570 1570 1570 1570 1570 1570 1570 1569 1569 1570 1569 1569 1569 1569 1569 1568 1568 1568 1568
1547 1549 1551 1553 1555 1556 1558 1559 1560 1562 1563 1564 1565 1566 1566 1567 1568 1568 1568 1569 1569 1569 1569 1569 1569 1569 1569 1568 1568 1568 1568 1568 1568 1568 1567 1567 1568 1567 1567 1567 1566 1566 1566
1543 1546 1549 1551 1553 1555 1556 1557 1559 1561 1562 1563 1564 1565 1566 1566 1567 1567 1567 1567 1567 1567 1567 1567 1567 1567 1567 1566 1566 1566 1566 1566 1566 1566 1566 1566 1565 1566 1566 1565 1565 1565 1564
1541 1544 1546 1548 1550 1552 1554 1556 1558 1559 1561 1562 1563 1564 1564 1564 1565 1566 1566 1566 1566 1566 1566 1565 1565 1565 1565 1564 1564 1564 1564 1564 1563 1563 1563 1564 1563 1564 1564 1564 1563 1563 1562
1538 1540 1543 1545 1548 1550 1553 1555 1556 1558 1559 1560 1562 1562 1563 1564 1564 1564 1564 1564 1564 1564 1564 1563 1563 1563 1562 1562 1562 1562 1561 1561 1561 1561 1561 1561 1561 1561 1561 1561 1561 1561 1561
1535 1538 1541 1544 1546 1549 1551 1553 1554 1556 1558 1559 1560 1561 1561 1562 1562 1562 1562 1562 1562 1561 1561 1561 1561 1560 1560 1560 1560 1560 1559 1559 1559 1558 1558 1558 1558 1558 1558 1558 1559 1559 1559
1532 1536 1539 1541 1543 1546 1548 1550 1552 1554 1556 1557 1558 1559 1560 1560 1560 1560 1560 1560 1559 1559 1559 1559 1558 1558 1558 1558 1558 1557 1557 1557 1556 1556 1555 1555 1555 1555 1555 1556 1556 1556 1557
1528 1532 1534 1537 1540 1543 1546 1549 1551 1552 1554 1555 1556 1557 1558 1558 1558 1558 1558 1558 1557 1557 1557 1556 1556 1556 1556 1556 1556 1555 1555 1554 1554 1554 1553 1553 1552 1553 1553 1553 1554 1554 1555
1525 1528 1532 1535 1538 1541 1544 1546 1549 1551 1552 1553 1555 1555 1556 1556 1556 1556 1556 1555 1555 1555 1555 1554 1554 1554 1554 1554 1554 1553 1552 1552 1552 1551 1551 1551 1550 1551 1551 1551 1551 1552 1552
1524 1527 1531 1534 1537 1539 1542 1545 1547 1548 1550 1551 1552 1553 1554 1554 1554 1554 1554 1553 1553 1553 1553 1553 1552 1552 1552 1551 1551 1551 1551 1550 1550 1549 1549 1549 1549 1549 1549 1549 1549 1550 1550
1522 1525 1529 1532 1535 1538 1540 1542 1544 1546 1548 1549 1550 1551 1551 1552 1552 1552 1552 1552 1552 1552 1552 1551 1550 1550 1550 1549 1549 1549 1548 1548 1548 1547 1547 1547 1547 1547 1547 1547 1547 1548 1549
1521 1524 1528 1531 1534 1537 1539 1541 1543 1544 1546 1548 1549 1549 1550 1551 1550 1550 1550 1550 1550 1550 1550 1550 1549 1549 1548 1548 1547 1546 1546 1546 1545 1545 1545 1545 1545 1545 1546 1546 1546 1547 1547
1521 1524 1527 1530 1533 1535 1537 1539 1541 1543 1545 1547 1548 1548 1549 1549 1549 1548 1548 1548 1548 1549 1549 1548 1548 1547 1547 1546 1545 1545 1544 1544 1544 1544 1544 1544 1544 1544 1544 1545 1545 1546 1546
1521 1523 1526 1529 1531 1534 1536 1538 1540 1542 1544 1546 1547 1547 1547 1547 1548 1548 1547 1547 1547 1547 1547 1547 1547 1546 1546 1545 1544 1544 1543 1543 1542 1543 1543 1543 1543 1543 1543 1543 1544 1545 1545
1520 1522 1525 1527 1530 1533 1535 1537 1539 1541 1543 1544 1545 1546 1546 1547 1547 1547 1546 1546 1546 1546 1546 1546 1546 1545 1545 1544 1544 1543 1542 1542 1542 1542 1542 1542 1542 1542 1542 1542 1543 1543 1544
1519 1521 1523 1526 1528 1531 1533 1535 1537 1539 1541 1543 1544 1545 1545 1546 1546 1546 1546 1546 1546 1545 1545 1545 1544 1544 1544 1544 1544 1543 1542 1542 1541 1541 1541 1541 1541 1541 1541 1542 1542 1543 1543
1516 1519 1522 1524 1527 1529 1531 1533 1535 1538 1540 1541 1543 1544 1544 1545 1545 1545 1546 1545 1545 1545 1545 1544 1544 1544 1544 1544 1544 1543 1542 1542 1541 1541 1541 1541 1541 1541 1541 1541 1542 1542 1542
1515 1518 1520 1523 1525 1528 1530 1532 1535 1537 1539 1540 1541 1542 1543 1544 1544 1545 1545 1545 1545 1545 1545 1544 1544 1543 1543 1543 1543 1543 1543 1542 1542 1541 1541 1541 1541 1542 1542 1542 1542 1542 1542
1514 1517 1519 1522 1524 1526 1529 1531 1533 1535 1537 1538 1540 1540 1541 1542 1543 1544 1544 1545 1545 1545 1544 1544 1544 1544 1544 1544 1543 1543 1543 1542 1542 1542 1542 1542 1542 1543 1543 1543 1542 1542 1542
1513 1516 1518 1520 1522 1525 1528 1530 1531 1533 1535 1536 1538 1539 1540 1541 1542 1543 1544 1544 1544 1544 1544 1544 1544 1544 1543 1544 1544 1544 1543 1543 1543 1543 1543 1543 1543 1544 1544 1544 1543 1543 1543
1511 1514 1517 1519 1521 1523 1526 1528 1530 1531 1533 1535 1536 1538 1539 1540 1541 1542 1543 1543 1544 1544 1544 1544 1544 1543 1543 1543 1544 1544 1544 1544 1544 1544 1544 1544 1545 1545 1545 1545 1545 1545 1545
1509 1512 1515 1517 1519 1522 1524 1526 1528 1530 1532 1534 1535 1536 1538 1539 1540 1541 1542 1543 1543 1543 1543 1543 1543 1543 1543 1543 1544 1545 1545 1545 1545 1545 1545 1546 1546 1546 1546 1546 1546 1546 1546
1508 1510 1513 1516 1518 1520 1523 1524 1526 1529 1530 1532 1533 1535 1536 1538 1539 1540 1541 1541 1542 1542 1543 1543 1543 1543 1543 1544 1545 1545 1546 1546 1546 1546 1547 1547 1547 1547 1547 1547 1547 1547 1547
1506 1509 1511 1514 1516 1519 1521 1523 1525 1527 1529 1530 1531 1533 1534 1536 1537 1539 1540 1540 1541 1541 1542 1542 1543 1543 1544 1544 1545 1545 1546 1546 1547 1547 1547 1548 1548 1548 1548 1548 1548 1547 1547
1505 1507 1509 1511 1514 1516 1519 1521 1523 1525 1526 1528 1530 1531 1533 1534 1536 1537 1538 1539 1540 1541 1541 1542 1543 1543 1543 1545 1545 1546 1546 1547 1547 1548 1548 1548 1548 1548 1548 1548 1548 1547 1547
1503 1505 1507 1509 1512 1514 1516 1519 1521 1522 1524 1526 1528 1529 1531 1532 1534 1535 1536 1537 1539 1540 1541 1542 1543 1543 1544 1545 1545 1546 1547 1547 1548 1548 1547 1547 1547 1547 1547 1547 1547 1547 1547